EW3811 Weather Reports


time (UTC)temp
C
wind
direction
speed
KPH
gust
KPH
rain 1hr
cm
rain 24hr
cm
rain mn
cm
humidity
%
barometer
mb
20260505184511 23 248 4.8 24.1 0.00 0.18 0.10 37 1004.6
20260505183012 23 264 9.7 25.7 0.00 0.18 0.10 37 1004.9
20260505181507 23 255 11.3 30.6 0.00 0.18 0.10 35 1005.0
20260505180005 23 269 3.2 24.1 0.03 0.18 0.10 38 1005.4
20260505174505 23 205 9.7 24.1 0.03 0.18 0.10 37 1005.3
20260505173002 23 232 11.3 32.2 0.03 0.18 0.10 38 1005.6
20260505171559 23 230 6.4 25.7 0.03 0.18 0.10 42 1005.8
20260505170057 23 101 1.6 24.1 0.00 0.15 0.08 43 1006.2
20260505164600 23 254 4.8 29.0 0.00 0.15 0.08 41 1006.4
20260505163050 22 306 11.3 30.6 0.00 0.15 0.08 41 1006.5
20260505161554 22 223 4.8 37.0 0.00 0.15 0.08 43 1006.8
20260505153045 21 165 6.4 24.1 0.03 0.15 0.08 45 1007.4
20260505151538 21 278 9.7 19.3 0.03 0.15 0.08 45 1007.5
20260505124505 14 224 0.0 1.6 0.00 0.10 0.03 56 1008.9
20260505123006 14 275 0.0 4.8 0.00 0.10 0.03 57 1009.0
20260505121503 14 124 0.0 0.0 0.00 0.10 0.03 56 1009.1
20260505120108 14 217 0.0 0.0 0.00 0.10 0.03 58 1008.9
20260505114558 13 112 0.0 0.0 0.00 0.10 0.03 59 1008.9
20260505113112 13 213 0.0 0.0 0.00 0.10 0.03 60 1009.1
20260505111553 13 184 0.0 0.0 0.00 0.10 0.03 61 1009.2
20260505101543 8 326 0.0 0.0 0.00 0.10 0.03 72 1009.1
20260505100042 9 326 0.0 0.0 0.00 0.10 0.03 71 1009.2
20260505094541 9 323 0.0 0.0 0.00 0.10 0.03 67 1009.4
20260505093042 10 302 0.0 0.0 0.03 0.10 0.03 67 1009.4
20260505091540 10 335 0.0 0.0 0.03 0.10 0.03 68 1009.3
20260505090039 10 326 0.0 0.0 0.03 0.10 0.03 68 1009.2
20260505084545 9 338 0.0 8.0 0.03 0.10 0.03 67 1009.6
20260505083042 9 344 0.0 0.0 0.00 0.08 0.00 68 1009.8
20260505081535 8 329 0.0 0.0 0.00 0.08 0.00 69 1009.9
20260505080037 8 312 0.0 0.0 0.00 0.08 0.00 70 1010.1
20260505074532 9 332 0.0 0.0 0.00 0.08 0.00 66 1009.9
20260505073033 10 334 0.0 1.6 0.00 0.08 0.00 64 1009.8
20260505071530 10 345 0.0 1.6 0.00 0.08 0.00 65 1009.9
20260505070040 10 337 0.0 0.0 0.00 0.08 0.00 65 1009.9
20260505064529 10 351 0.0 0.0 0.00 0.08 0.00 64 1010.1
20260505063032 10 21 0.0 0.0 0.00 0.08 0.00 65 1010.2
20260505061526 9 328 0.0 0.0 0.00 0.08 0.00 65 1010.1
20260505060034 10 324 0.0 0.0 0.00 0.08 0.00 64 1010.1
20260505054525 10 338 0.0 0.0 0.00 0.08 0.00 62 1010.1
20260505053022 10 345 0.0 0.0 0.00 0.08 0.00 61 1010.1
20260505051522 10 323 0.0 0.0 0.00 0.08 0.00 63 1010.0
20260505041515 10 334 0.0 0.0 0.03 0.08 0.00 63 1009.9
20260505040012 10 330 0.0 0.0 0.03 0.08 0.08 63 1009.7
20260505034511 10 326 0.0 0.0 0.03 0.08 0.08 64 1009.6
20260505033010 10 323 0.0 0.0 0.00 0.05 0.05 63 1009.4
20260505031512 10 323 0.0 0.0 0.00 0.05 0.05 64 1009.4
20260505030009 10 332 0.0 0.0 0.00 0.05 0.05 61 1009.3
20260505024510 11 337 0.0 0.0 0.00 0.05 0.05 58 1009.4
20260505023007 10 319 0.0 0.0 0.00 0.05 0.05 60 1009.6
20260505021507 12 326 0.0 0.0 0.00 0.05 0.05 54 1009.7
20260505020012 12 333 0.0 1.6 0.00 0.05 0.05 55 1009.7
20260505014507 12 335 0.0 0.0 0.00 0.05 0.05 54 1009.7
20260505013005 12 25 0.0 1.6 0.00 0.05 0.05 54 1009.5
20260505011505 12 328 0.0 0.0 0.00 0.05 0.05 55 1009.4
20260505010013 12 340 0.0 1.6 0.00 0.05 0.05 56 1009.2
20260505004506 12 356 0.0 0.0 0.00 0.05 0.05 53 1008.9
20260505003002 13 328 0.0 0.0 0.00 0.05 0.05 51 1008.7
20260505001502 14 352 0.0 0.0 0.00 0.05 0.05 46 1008.4
20260505000002 14 309 0.0 0.0 0.00 0.05 0.05 46 1008.3
20260504234501 15 283 0.0 0.0 0.00 0.05 0.05 45 1008.1
20260504233113 15 257 0.0 1.6 0.00 0.05 0.05 45 1007.9
20260504231600 15 314 1.6 6.4 0.00 0.05 0.05 45 1007.7
20260504230100 15 280 0.0 0.0 0.00 0.05 0.05 45 1007.6
20260504224559 16 171 0.0 17.7 0.00 0.05 0.05 44 1007.6
20260504223058 16 290 0.0 12.9 0.00 0.05 0.05 43 1007.4
20260504221558 16 306 0.0 12.9 0.00 0.05 0.05 42 1007.2
20260504220058 16 243 6.4 17.7 0.00 0.05 0.05 41 1007.3
20260504214606 17 276 0.0 12.9 0.00 0.05 0.05 41 1007.3
20260504213054 16 245 9.7 27.4 0.00 0.05 0.05 42 1007.3
20260504211554 16 235 9.7 25.7 0.00 0.05 0.05 42 1007.3
20260504210055 16 206 1.6 24.1 0.00 0.05 0.05 43 1007.3
20260504204554 16 271 9.7 22.5 0.00 0.05 0.05 44 1007.3
20260504203055 16 172 8.0 25.7 0.00 0.05 0.05 45 1007.3
20260504201547 16 217 1.6 14.5 0.00 0.05 0.05 45 1007.2
20260504200045 16 121 1.6 19.3 0.00 0.05 0.05 47 1007.5
20260504194547 15 318 3.2 11.3 0.00 0.05 0.05 49 1007.5
20260504193040 15 68 0.0 1.6 0.03 0.05 0.05 53 1007.7
20260504191542 14 102 0.0 17.7 0.03 0.05 0.05 53 1007.9
20260504190038 13 179 1.6 17.7 0.05 0.05 0.05 56 1008.1